Location: Kaseke
(18.0171°S, 31.0526°E)
Time: 12:32:01
(UTC+00:00)

NOAA 6 - Pass Details

Date: 14 July 2020
Orbit: 771 x 788 km, 98.7° (Epoch: 08 August)

Event Time Altitude Azimuth Distance (km) Brightness Sun altitude
Rises 03:24:38 0° 4° (N) 3,226 7.5 -14.9°
Reaches altitude 10° 03:26:58 10° 360° (N) 2,306 6.7 -14.3°
Maximum altitude 03:31:56 56° 282° (WNW) 914 4.1 -13.2°
Drops below altitude 10° 03:36:59 10° 203° (SSW) 2,333 6.1 -12.1°
Sets 03:39:22 0° 199° (SSW) 3,268 6.9 -11.5°
